[[{"header":{"parameterUnit":"m.s-1","parameterCategory":1,"la1":30.2991,"la2":30.254,"lo1":-89.0895,"lo2":-89.0444,"dy":0.0017,"dx":0.0017,"nx":28,"ny":28,"refTime":"2024-04-20T21:00:00:Z","depth":0,"parameterNumber":2,"parameterNumberName":"U-component_of_WINDS"},"data":[0,0,0,0,0,0,0,0,0,0,0,0,0,0,0,0,0,0,0,0,0,0,0,0,0,0,0,0,0,0,0,0,0,0,0,0,0,0,0,0,0,0,0,0,0,0,0,0,0,0,0,0,0,0,0,0,0,0,0.0019,0.002,0,0.0069,0.007,0.007,0.0087,0.0086,0.0086,0.0086,0.0139,0.0141,0.0142,0,0,0,0,0,0,0,0,0,0,0,0,0,-0.0059,-0.0058,0.0019,0.002,0.002,0.0069,0.007,0.007,0.0087,0.0086,0.0086,0.0086,0.0139,0.0141,0.0143,0,0,0,0,0,0,0,0,0,0,0,0,0,-0.0019,-0.0057,0.0019,0.0034,0.0036,0.0069,0.007,0.007,0.0087,0.0086,0.0086,0.0086,0.0138,0.014,0.0143,0.0165,0,0,0.015,0.0151,0,0,0,0,0,0,0,0,-0.0021,-0.0016,0.0031,0.0033,0.0035,0.0071,0.0062,0.0102,0.0087,0.0067,0.0086,0.0085,0.0117,0.0121,0.0131,0.0167,0.0169,0.0151,0.0152,0.0153,0.0154,0,0,0,0,0,0,0,-0.0024,-0.0018,0.0039,0.0032,0.0034,0.004,0.0045,0.0069,0.0094,0.0069,0.007,0.0076,0.0118,0.0129,0.0133,0.017,0.015,0.0153,0.0154,0.0155,0.0228,0.0229,0,0,0,0,0,0,-0.003,-0.002,0.0037,0.004,0.0006,0.0041,0.0047,0.006,0.0093,0.0098,0.0076,0.0077,0.0125,0.013,0.0135,0.0163,0.0153,0.0155,0.0157,0.0228,0.0228,0.0229,0,0,0,0,0,0,-0.0031,-0.0025,0.0035,0.001,0.0018,0.0043,0.0057,0.0061,0.0072,0.0099,0.0103,0.0083,0.0125,0.0131,0.0157,0.0165,0.0156,0.0159,0.0227,0.0228,0.0229,0.022,0,0,0,0,0,0,-0.0034,-0.0025,-0.0018,0.001,0.002,0.0056,0.0058,0.0062,0.0076,0.0077,0.0106,0.0111,0.0125,0.0154,0.016,0.0169,0.0161,0.0227,0.0228,0.0228,0.022,0.022,0.0221,0,0,0,0,0,-0.0037,-0.0022,-0.0017,-0.0011,0.003,0.0056,0.0062,0.0078,0.0076,0.0085,0.0102,0.011,0.0163,0.0156,0.0163,0.0173,0.0226,0.0227,0.0228,0.0219,0.022,0.0221,0,0,0,0,0,0,-0.0049,-0.0018,-0.0013,0.0011,0.0031,0.0059,0.007,0.0078,0.0099,0.0099,0.0118,0.0125,0.015,0.0164,0.0155,0.0197,0.0195,0.0198,0.0186,0.0187,0.0188,0.0184,0.0163,0,0,0,0,0,-0.0049,-0.0031,-0.0004,0.0014,0.0024,0.0045,0.0058,0.0068,0.009,0.0098,0.0117,0.0139,0.0161,0.0175,0.0196,0.0222,0.0229,0.0232,0.0233,0.0233,0.0235,0.0251,0.0253,0.0232,0.0232,0.0232,0,0,-0.0049,-0.003,-0.0019,0.0012,0.0029,0.0048,0.0052,0.0072,0.0088,0.0102,0.0127,0.0142,0.0168,0.0194,0.0206,0.0207,0.0243,0.0235,0.0235,0.0237,0.0253,0.0255,0.0256,0.0233,0.0233,0.0233,0,0,-0.0039,-0.0023,-0.0005,0.0011,0.0036,0.0051,0.0055,0.0082,0.0093,0.0119,0.013,0.0149,0.0186,0.0204,0.0218,0.0236,0.0244,0.0243,0.0246,0.0261,0.0263,0.0265,0.0272,0.0274,0.0245,0.0245,0.0245,0,-0.0042,-0.0013,0.0003,0.0023,0.0037,0.0051,0.007,0.0085,0.0116,0.0126,0.0126,0.0173,0.0191,0.0222,0.0227,0.0237,0.0244,0.0239,0.0261,0.0263,0.0265,0.0272,0.0275,0.0244,0.0244,0.0244,0.0244,0,-0.0017,0.0003,0.0015,0.0044,0.0059,0.0079,0.0099,0.0113,0.0122,0.0137,0.0165,0.0187,0.0213,0.0222,0.0231,0.0255,0.0254,0.0257,0.0256,0.0266,0.0274,0.0276,0.0244,0.0244,0.0244,0.0244,0,0,-0.0014,0.0024,0.0029,0.0042,0.0071,0.0088,0.0108,0.0134,0.0146,0.0168,0.0186,0.0218,0.0221,0.0237,0.0249,0.0262,0.0277,0.0264,0.0265,0.0266,0.0306,0.0303,0.0306,0.0282,0.0283,0.0283,0.0304,0,0.0001,0.0037,0.0053,0.0082,0.0102,0.0115,0.0134,0.0154,0.0169,0.0189,0.0205,0.0228,0.023,0.024,0.0254,0.0272,0.0285,0.0271,0.0301,0.0302,0.0294,0.031,0.0307,0.0325,0.0307,0.0307,0.0307,0,0.0022,0.0043,0.0075,0.0102,0.0111,0.0127,0.0153,0.0171,0.0195,0.0205,0.0223,0.0235,0.0258,0.0256,0.0289,0.0279,0.0293,0.0304,0.0305,0.0309,0.0305,0.0315,0.0331,0.0334,0.0312,0.0312,0.0311,0,0.0022,0.0058,0.0082,0.0094,0.0126,0.0137,0.0152,0.0175,0.019,0.0213,0.0223,0.0248,0.0263,0.0282,0.0301,0.0297,0.0333,0.0332,0.0343,0.0343,0.035,0.0349,0.037,0.0358,0.0358,0.0358,0.0358,0,0.0037,0.0056,0.0083,0.0097,0.012,0.0138,0.016,0.0175,0.0197,0.0215,0.0229,0.0247,0.027,0.0291,0.0306,0.0332,0.0338,0.0348,0.0352,0.0347,0.0346,0.0356,0.0355,0.0359,0.0358,0.0358,0.0358,0,0.0041,0.0059,0.0086,0.0115,0.0123,0.0138,0.0163,0.0179,0.0195,0.0218,0.0225,0.025,0.0276,0.0296,0.033,0.034,0.0368,0.0372,0.0359,0.0361,0.0371,0.037,0.04,0.0405,0.0389,0.0389,0.0389,0,0.0049,0.0064,0.0094,0.0108,0.0122,0.0143,0.0158,0.0177,0.0193,0.0222,0.0235,0.0261,0.0283,0.0324,0.0346,0.0372,0.0377,0.0385,0.0381,0.0376,0.0378,0.0377,0.0379,0.0386,0.0386,0.0386,0.0386,0,0.0062,0.0071,0.0091,0.0116,0.0134,0.0154,0.0175,0.0186,0.0209,0.0226,0.0252,0.0269,0.0304,0.033,0.0359,0.0375,0.0385,0.0387,0.0391,0.0387,0.0379,0.0384,0.0361,0.0387,0.0386,0.0386,0.0386,0.0386,0.0069,0.0083,0.0107,0.013,0.0148,0.0167,0.0184,0.0201,0.0223,0.0252,0.0263,0.029,0.0315,0.0355,0.0371,0.0393,0.0394,0.04,0.0401,0.0403,0.0402,0.0375,0.0399,0.0399,0.0399,0.0399,0.0399,0,0.0083,0.0099,0.012,0.0149,0.0168,0.0175,0.0199,0.0214,0.0238,0.026,0.0282,0.0312,0.0339,0.0363,0.039,0.0404,0.0409,0.0411,0.041,0.0414,0.04,0.0394,0.0406,0.0406,0.0406,0.0406,0.0406,0.0406,0.0093,0.0117,0.0129,0.0164,0.018,0.0206,0.0219,0.0238,0.0256,0.0289,0.0311,0.0326,0.035,0.038,0.0405,0.0411,0.0421,0.0421,0.0429,0.0416,0.0415,0.0414,0.0408,0.0423,0.0423,0.0442,0.0442,0.0442]},{"header":{"parameterUnit":"m.s-1","parameterCategory":1,"la1":30.2991,"la2":30.254,"lo1":-89.0895,"lo2":-89.0444,"dy":0.0017,"dx":0.0017,"nx":28,"ny":28,"refTime":"2024-04-20T21:00:00:Z","depth":0,"parameterNumber":3,"parameterNumberName":"V-component_of_WINDS"},"data":[0,0,0,0,0,0,0,0,0,0,0,0,0,0,0,0,0,0,0,0,0,0,0,0,0,0,0,0,0,0,0,0,0,0,0,0,0,0,0,0,0,0,0,0,0,0,0,0,0,0,0,0,0,0,0,0,0,0,-2.8394,-2.8394,0,-2.8441,-2.8441,-2.8442,-2.8479,-2.848,-2.848,-2.848,-2.8525,-2.8525,-2.8526,0,0,0,0,0,0,0,0,0,0,0,0,0,-2.8335,-2.8336,-2.8394,-2.8395,-2.8395,-2.8441,-2.8441,-2.8442,-2.8479,-2.848,-2.848,-2.8481,-2.8524,-2.8525,-2.8526,0,0,0,0,0,0,0,0,0,0,0,0,0,-2.8369,-2.8337,-2.8394,-2.8419,-2.8422,-2.844,-2.8441,-2.8442,-2.8479,-2.848,-2.848,-2.8481,-2.8524,-2.8525,-2.8526,-2.8522,0,0,-2.853,-2.8531,0,0,0,0,0,0,0,0,-2.8367,-2.8371,-2.8415,-2.8418,-2.8421,-2.8455,-2.8437,-2.8469,-2.8479,-2.8457,-2.848,-2.8481,-2.8501,-2.8504,-2.8511,-2.8524,-2.8526,-2.853,-2.8531,-2.8531,-2.8532,0,0,0,0,0,0,0,-2.8365,-2.8369,-2.8412,-2.8416,-2.8419,-2.8428,-2.8433,-2.8443,-2.8475,-2.8459,-2.8462,-2.8467,-2.8502,-2.851,-2.8512,-2.8527,-2.853,-2.8531,-2.8532,-2.8532,-2.854,-2.854,0,0,0,0,0,0,-2.8359,-2.8367,-2.8411,-2.8414,-2.8395,-2.8428,-2.8435,-2.8443,-2.8475,-2.8481,-2.8467,-2.8469,-2.8508,-2.8511,-2.8514,-2.8513,-2.8531,-2.8533,-2.8533,-2.8541,-2.854,-2.854,0,0,0,0,0,0,-2.8358,-2.8362,-2.8409,-2.8391,-2.8398,-2.8429,-2.8438,-2.8444,-2.8452,-2.8481,-2.8486,-2.8469,-2.8508,-2.8512,-2.8521,-2.8515,-2.8533,-2.8534,-2.8542,-2.8541,-2.854,-2.8509,0,0,0,0,0,0,-2.8356,-2.8362,-2.8361,-2.8391,-2.8399,-2.8415,-2.8438,-2.8444,-2.8454,-2.8457,-2.8484,-2.8489,-2.8509,-2.8519,-2.8522,-2.8517,-2.8535,-2.8542,-2.8541,-2.854,-2.851,-2.8507,-2.8504,0,0,0,0,0,-2.8353,-2.8349,-2.836,-2.8365,-2.8398,-2.8415,-2.8419,-2.8443,-2.8453,-2.8452,-2.8472,-2.8488,-2.8515,-2.8519,-2.8523,-2.8518,-2.8543,-2.8542,-2.854,-2.8512,-2.8508,-2.8504,0,0,0,0,0,0,-2.8315,-2.8353,-2.8366,-2.8371,-2.839,-2.8421,-2.842,-2.8437,-2.8452,-2.8454,-2.8482,-2.8488,-2.8493,-2.8506,-2.851,-2.8517,-2.8531,-2.8531,-2.8508,-2.8504,-2.8501,-2.8498,-2.8536,0,0,0,0,0,-2.8307,-2.8318,-2.835,-2.8352,-2.836,-2.8389,-2.8397,-2.8414,-2.8433,-2.8441,-2.8461,-2.8478,-2.8491,-2.8498,-2.8511,-2.8513,-2.852,-2.8511,-2.8508,-2.8505,-2.8505,-2.8508,-2.8506,-2.8536,-2.8536,-2.8536,0,0,-2.829,-2.8313,-2.8318,-2.8345,-2.8361,-2.8371,-2.8395,-2.8404,-2.8412,-2.8442,-2.8452,-2.8467,-2.8488,-2.8494,-2.8497,-2.8505,-2.8498,-2.8504,-2.8502,-2.8503,-2.8507,-2.8504,-2.8501,-2.8535,-2.8535,-2.8536,0,0,-2.8266,-2.8284,-2.8288,-2.8305,-2.833,-2.8349,-2.835,-2.8379,-2.8391,-2.8402,-2.8425,-2.8434,-2.8455,-2.847,-2.848,-2.8464,-2.8481,-2.8468,-2.8451,-2.8454,-2.8452,-2.845,-2.8445,-2.8443,-2.8467,-2.8467,-2.8467,0,-2.8242,-2.826,-2.8288,-2.8297,-2.8309,-2.8338,-2.8342,-2.8356,-2.8384,-2.8391,-2.84,-2.8428,-2.8444,-2.8454,-2.8451,-2.8458,-2.846,-2.8465,-2.845,-2.8448,-2.8447,-2.8443,-2.8441,-2.8465,-2.8465,-2.8465,-2.8466,0,-2.823,-2.8242,-2.8243,-2.8271,-2.8282,-2.8289,-2.8317,-2.8325,-2.8342,-2.836,-2.8371,-2.8392,-2.8411,-2.8415,-2.843,-2.8428,-2.8432,-2.8445,-2.846,-2.8442,-2.8439,-2.8437,-2.8463,-2.8463,-2.8464,-2.8464,0,0,-2.8182,-2.8227,-2.8227,-2.8241,-2.8272,-2.8281,-2.8289,-2.831,-2.8317,-2.8335,-2.8343,-2.8361,-2.8374,-2.8386,-2.8403,-2.8406,-2.8394,-2.8419,-2.842,-2.8414,-2.8394,-2.8385,-2.8383,-2.8405,-2.8405,-2.8405,-2.8393,0,-2.8163,-2.8182,-2.8208,-2.8217,-2.8229,-2.8258,-2.8266,-2.8285,-2.8303,-2.8315,-2.8334,-2.8348,-2.8363,-2.8371,-2.8375,-2.8394,-2.839,-2.8396,-2.8413,-2.8413,-2.8407,-2.8381,-2.8371,-2.8358,-2.8392,-2.8391,-2.8391,0,-2.8144,-2.8163,-2.8174,-2.8207,-2.8213,-2.8219,-2.8241,-2.8252,-2.8275,-2.8288,-2.8303,-2.8322,-2.8333,-2.8346,-2.8361,-2.8364,-2.8373,-2.8384,-2.8384,-2.8387,-2.8401,-2.8384,-2.8355,-2.8353,-2.8389,-2.8389,-2.839,0,-2.8109,-2.8137,-2.8148,-2.8159,-2.8197,-2.8201,-2.8216,-2.824,-2.8252,-2.827,-2.8278,-2.8296,-2.8307,-2.8321,-2.8345,-2.8352,-2.8358,-2.8373,-2.8369,-2.8368,-2.8369,-2.8369,-2.8342,-2.8373,-2.8373,-2.8373,-2.8373,0,-2.8086,-2.8092,-2.8134,-2.814,-2.8148,-2.8178,-2.8185,-2.8203,-2.8224,-2.8235,-2.826,-2.827,-2.8301,-2.8314,-2.8333,-2.8343,-2.8347,-2.8358,-2.8363,-2.8356,-2.8355,-2.8362,-2.8364,-2.8373,-2.8373,-2.8373,-2.8373,0,-2.8048,-2.8076,-2.8091,-2.8126,-2.8135,-2.8139,-2.8169,-2.8177,-2.8197,-2.821,-2.8215,-2.8246,-2.8263,-2.8289,-2.8312,-2.8325,-2.8333,-2.8341,-2.8326,-2.8329,-2.8324,-2.8324,-2.8301,-2.83,-2.8331,-2.8331,-2.833,0,-2.8032,-2.8038,-2.8075,-2.8085,-2.81,-2.8115,-2.8128,-2.8158,-2.8169,-2.8198,-2.8202,-2.8221,-2.8238,-2.8263,-2.8287,-2.8306,-2.8315,-2.8306,-2.8318,-2.8312,-2.8316,-2.8316,-2.8317,-2.8303,-2.8303,-2.8302,-2.8302,0,-2.8001,-2.8015,-2.8033,-2.8056,-2.8071,-2.809,-2.811,-2.8116,-2.8151,-2.8162,-2.8181,-2.8194,-2.822,-2.8239,-2.8262,-2.8277,-2.8295,-2.8298,-2.8298,-2.8292,-2.8283,-2.8289,-2.8319,-2.8298,-2.8299,-2.8299,-2.8299,-2.8299,-2.7974,-2.7982,-2.801,-2.8029,-2.8048,-2.8067,-2.8077,-2.8099,-2.8116,-2.814,-2.8157,-2.8175,-2.8199,-2.8232,-2.8246,-2.826,-2.8268,-2.8268,-2.8268,-2.8268,-2.8266,-2.8281,-2.8264,-2.8264,-2.8264,-2.8265,-2.8265,0,-2.7946,-2.7966,-2.7983,-2.8012,-2.8028,-2.8046,-2.8069,-2.8081,-2.8097,-2.8119,-2.8136,-2.8158,-2.8177,-2.8204,-2.8225,-2.8231,-2.824,-2.8235,-2.8236,-2.8239,-2.8257,-2.8256,-2.8228,-2.8228,-2.8228,-2.8228,-2.8228,-2.8228,-2.7933,-2.7947,-2.7965,-2.7989,-2.8009,-2.8028,-2.804,-2.8058,-2.8076,-2.81,-2.8117,-2.8135,-2.8159,-2.8182,-2.8201,-2.8208,-2.8215,-2.8208,-2.8218,-2.8234,-2.8238,-2.8241,-2.8239,-2.8209,-2.8209,-2.8199,-2.8199,-2.8199]}]]